Location: *
(51.4660°N, 0.3360°W)
Time: 13:48:54
(UTC+00:00)

CZ-2C R/B - Pass Details

Date: 19 September 2019
Orbit: 705 x 907 km, 98.1° (Epoch: 18 October)

Event Time Altitude Azimuth Distance (km) Brightness Sun altitude
Exits shadow 19:29:59 18° 128° (SE) 1,915 4.5 -13.4°
Maximum altitude 19:33:37 43° 65° (ENE) 1,168 3.6 -13.9°
Drops below altitude 10° 19:38:51 10° 356° (N) 2,515 6.0 -14.7°
Sets 19:41:24 0° 350° (N) 3,483 6.9 -15.1°
